GW2569 Weather Reports


Display with metric or nautical units.
time (UTC)temp
F
wind
direction
speed
MPH
gust
MPH
rain 1hr
in
rain 24hr
in
rain mn
in
humidity
%
barometer
mb
20260901135541 84 121 3.0 8.0 0.00 0.00 0.00 91 1015.9
20260901135040 83 70 2.0 7.0 0.00 0.00 0.00 92 1015.8
20260901134558 83 117 3.0 7.0 0.00 0.00 0.00 91 1015.8
20260901134036 83 132 1.0 7.0 0.00 0.00 0.00 92 1015.8
20260901133540 83 119 3.0 7.0 0.00 0.00 0.00 92 1015.6
20260901133105 83 151 3.0 8.0 0.00 0.00 0.00 92 1015.7
20260901132537 83 90 3.0 8.0 0.00 0.00 0.00 92 1015.4
20260901132041 83 101 1.0 9.0 0.00 0.00 0.00 93 1015.4
20260901131601 82 85 4.0 9.0 0.00 0.00 0.00 93 1015.4
20260901131040 82 89 4.0 9.0 0.00 0.00 0.00 94 1015.2
20260901130538 82 99 4.0 8.0 0.00 0.00 0.00 94 1015.3
20260901130107 81 129 2.0 8.0 0.00 0.00 0.00 94 1015.2
20260901125540 81 82 2.0 7.0 0.00 0.00 0.00 94 1015.2
20260901125040 81 102 3.0 7.0 0.00 0.00 0.00 95 1015.1
20260901124605 81 115 1.0 4.0 0.00 0.00 0.00 95 1015.1
20260901124043 81 99 1.0 4.0 0.00 0.00 0.00 95 1015.0
20260901123540 81 107 2.0 4.0 0.00 0.00 0.00 95 1015.0
20260901123122 81 0 2.0 6.0 0.00 0.00 0.00 95 1014.9
20260901122540 81 105 3.0 6.0 0.00 0.00 0.00 95 1014.9
20260901122039 81 107 1.0 4.0 0.00 0.00 0.00 95 1014.9
20260901121603 80 107 1.0 4.0 0.00 0.00 0.00 95 1015.0
20260901121040 80 103 1.0 3.0 0.00 0.00 0.00 95 1015.0
20260901120539 80 105 1.0 3.0 0.00 0.00 0.00 95 1014.9
20260901120106 80 74 0.0 3.0 0.00 0.00 0.00 96 1015.0
20260901115540 80 0 0.0 3.0 0.00 0.00 0.00 96 1014.9
20260901115043 80 184 0.0 3.0 0.00 0.00 0.00 96 1015.0
20260901114606 80 0 1.0 3.0 0.00 0.00 0.00 96 1014.9
20260901114039 81 131 1.0 3.0 0.00 0.00 0.00 96 1014.9
20260901113539 81 0 0.0 3.0 0.00 0.00 0.00 96 1014.7
20260901113102 81 113 1.0 4.0 0.00 0.00 0.00 96 1014.7
20260901112539 81 146 1.0 4.0 0.00 0.00 0.00 96 1014.6
20260901112040 81 132 1.0 4.0 0.00 0.00 0.00 96 1014.7
20260901111610 81 155 1.0 3.0 0.00 0.00 0.00 96 1014.6
20260901111044 81 135 1.0 3.0 0.00 0.00 0.00 95 1014.6
20260901110540 81 167 0.0 3.0 0.00 0.00 0.00 95 1014.7
20260901110116 81 113 1.0 3.0 0.00 0.00 0.00 95 1014.6
20260901105540 81 107 1.0 4.0 0.00 0.00 0.00 95 1014.5
20260901105043 81 105 1.0 4.0 0.00 0.00 0.00 95 1014.5
20260901104558 81 110 1.0 7.0 0.00 0.00 0.00 95 1014.4
20260901104040 81 80 3.0 8.0 0.00 0.00 0.00 95 1014.3
20260901103540 81 86 1.0 8.0 0.00 0.00 0.00 95 1014.3
20260901103108 81 38 2.0 8.0 0.00 0.00 0.00 95 1014.2
20260901102539 81 47 2.0 6.0 0.00 0.00 0.00 96 1014.2
20260901102040 81 89 1.0 7.0 0.00 0.00 0.00 96 1014.2
20260901101553 81 87 3.0 7.0 0.00 0.00 0.00 96 1014.1
20260901101039 81 63 2.0 6.0 0.00 0.00 0.00 96 1014.2
20260901100540 81 42 2.0 7.0 0.00 0.00 0.00 96 1014.1
20260901100058 81 83 3.0 8.0 0.00 0.00 0.00 96 1014.1
20260901095538 81 104 2.0 8.0 0.00 0.00 0.00 96 1014.0
20260901095038 81 53 2.0 7.0 0.00 0.00 0.00 96 1014.0
20260901094603 81 75 3.0 7.0 0.00 0.00 0.00 96 1014.1
20260901094040 81 104 3.0 6.0 0.00 0.00 0.00 96 1014.1
20260901093541 81 42 2.0 7.0 0.00 0.00 0.00 96 1014.0
20260901093107 81 0 3.0 8.0 0.00 0.00 0.00 96 1014.1
20260901092541 81 52 3.0 8.0 0.00 0.00 0.00 96 1013.9
20260901092040 81 57 3.0 8.0 0.00 0.00 0.00 96 1014.0
20260901091559 81 93 3.0 8.0 0.00 0.00 0.00 97 1014.0
20260901091040 81 73 2.0 8.0 0.00 0.00 0.00 97 1014.0
20260901090540 81 91 2.0 6.0 0.00 0.00 0.00 97 1014.0
20260901090057 81 78 1.0 6.0 0.00 0.00 0.00 97 1014.1
20260901085539 81 28 1.0 5.0 0.00 0.00 0.00 97 1014.2
20260901085039 81 56 2.0 7.0 0.00 0.00 0.00 97 1014.3
20260901084602 81 0 2.0 7.0 0.00 0.00 0.00 97 1014.3
20260901084039 81 0 3.0 7.0 0.00 0.00 0.00 97 1014.4
20260901083540 81 117 1.0 7.0 0.00 0.00 0.00 97 1014.4
20260901083103 81 57 2.0 7.0 0.00 0.00 0.00 97 1014.5
20260901082539 81 77 1.0 8.0 0.00 0.00 0.00 97 1014.5
20260901082040 81 103 3.0 8.0 0.00 0.00 0.00 97 1014.5
20260901081605 81 97 4.0 8.0 0.00 0.00 0.00 96 1014.5
20260901081039 81 102 3.0 7.0 0.00 0.00 0.00 96 1014.6
20260901080540 81 67 3.0 8.0 0.00 0.00 0.00 96 1014.7
20260901080056 81 89 2.0 8.0 0.00 0.00 0.00 96 1014.7
20260901075541 81 90 3.0 8.0 0.00 0.00 0.00 96 1014.9
20260901075040 81 92 3.0 9.0 0.00 0.00 0.00 96 1014.9
20260901074604 81 101 3.0 9.0 0.00 0.00 0.00 96 1014.9
20260901074041 82 47 3.0 9.0 0.00 0.00 0.00 96 1015.0
20260901073540 82 86 3.0 9.0 0.00 0.00 0.00 96 1015.1
20260901073102 82 123 2.0 7.0 0.00 0.00 0.00 96 1015.1
20260901072541 82 70 3.0 8.0 0.00 0.00 0.00 95 1015.1
20260901072042 82 109 3.0 8.0 0.00 0.00 0.00 95 1015.2
20260901071604 82 103 2.0 8.0 0.00 0.00 0.00 95 1015.2
20260901071039 82 78 1.0 6.0 0.00 0.00 0.00 95 1015.2
20260901070539 82 63 1.0 9.0 0.00 0.00 0.00 95 1015.2
20260901070104 82 80 3.0 9.0 0.00 0.00 0.00 95 1015.3
20260901065538 82 109 3.0 8.0 0.00 0.00 0.00 95 1015.4
20260901065038 82 86 3.0 8.0 0.00 0.00 0.00 95 1015.4
20260901064557 82 0 3.0 8.0 0.00 0.00 0.00 95 1015.4
20260901064041 82 85 2.0 9.0 0.00 0.00 0.00 95 1015.4
20260901063539 82 78 3.0 9.0 0.00 0.00 0.00 95 1015.5
20260901063111 82 92 5.0 9.0 0.00 0.00 0.00 95 1015.4
20260901062539 82 88 4.0 9.0 0.00 0.00 0.00 94 1015.5
20260901062038 82 71 4.0 9.0 0.00 0.00 0.00 94 1015.4
20260901061628 82 59 2.0 8.0 0.00 0.00 0.00 94 1015.4
20260901061037 82 55 2.0 9.0 0.00 0.00 0.00 94 1015.4
20260901060539 82 102 3.0 9.0 0.00 0.00 0.00 94 1015.4
20260901055539 82 82 4.0 7.0 0.00 0.00 0.00 93 1015.5
20260901055039 83 64 4.0 9.0 0.00 0.00 0.00 93 1015.5
20260901054608 83 33 4.0 9.0 0.00 0.00 0.00 93 1015.6
20260901054040 83 55 3.0 9.0 0.00 0.00 0.00 93 1015.5
20260901053541 83 55 3.0 8.0 0.00 0.00 0.00 93 1015.5
20260901053107 83 75 4.0 9.0 0.00 0.00 0.00 93 1015.5
20260901052539 83 81 3.0 9.0 0.00 0.00 0.00 92 1015.5
20260901052042 83 59 2.0 8.0 0.00 0.00 0.00 92 1015.6
20260901051603 83 65 3.0 8.0 0.00 0.00 0.00 92 1015.6
20260901051037 83 40 2.0 9.0 0.00 0.00 0.00 92 1015.6
20260901050540 83 79 3.0 9.0 0.00 0.00 0.00 92 1015.6
20260901050108 83 102 4.0 9.0 0.00 0.00 0.00 92 1015.5
20260901045539 84 46 6.0 9.0 0.00 0.00 0.00 91 1015.5
20260901045044 84 61 4.0 8.0 0.00 0.00 0.00 91 1015.5
20260901044611 84 61 2.0 9.0 0.00 0.00 0.00 91 1015.5
20260901044036 84 66 4.0 9.0 0.00 0.00 0.00 91 1015.4
20260901043540 84 57 4.0 8.0 0.00 0.00 0.00 91 1015.4
20260901043059 84 59 2.0 7.0 0.00 0.00 0.00 91 1015.3
20260901042540 84 49 2.0 7.0 0.00 0.00 0.00 91 1015.4
20260901042039 85 39 3.0 7.0 0.00 0.00 0.00 90 1015.4
20260901041606 85 61 3.0 7.0 0.00 0.00 0.00 90 1015.4
20260901041037 85 44 3.0 6.0 0.00 0.00 0.00 90 1015.4
20260901040540 85 65 2.0 6.0 0.00 0.00 0.00 90 1015.5
20260901040100 85 79 1.0 5.0 0.00 0.00 0.00 90 1015.4
20260901035539 85 65 2.0 5.0 0.00 0.00 0.00 90 1015.4
20260901035036 85 57 1.0 5.0 0.00 0.00 0.00 90 1015.4
20260901034557 85 63 1.0 5.0 0.00 0.00 0.00 90 1015.4
20260901034046 85 105 1.0 4.0 0.00 0.00 0.00 90 1015.4
20260901033540 85 0 1.0 4.0 0.00 0.00 0.00 90 1015.3
20260901033055 85 0 0.0 4.0 0.00 0.00 0.00 89 1015.3
20260901032542 85 0 0.0 4.0 0.00 0.00 0.00 89 1015.2
20260901032041 85 56 0.0 5.0 0.00 0.00 0.00 89 1015.0
20260901031613 86 0 1.0 5.0 0.00 0.00 0.00 89 1015.0
20260901031039 86 85 1.0 4.0 0.00 0.00 0.00 89 1015.0
20260901030542 86 0 1.0 4.0 0.00 0.00 0.00 89 1014.9
20260901030058 86 77 1.0 4.0 0.00 0.00 0.00 88 1014.7
20260901025540 86 44 0.0 3.0 0.00 0.00 0.00 88 1014.6
20260901025040 86 0 1.0 5.0 0.00 0.00 0.00 88 1014.6
20260901024557 86 0 1.0 5.0 0.00 0.00 0.00 88 1014.6
20260901024040 86 94 0.0 5.0 0.00 0.00 0.00 88 1014.6
20260901023540 86 0 1.0 5.0 0.00 0.00 0.00 87 1014.5
20260901023056 87 0 0.0 5.0 0.00 0.00 0.00 87 1014.5
20260901022540 87 0 1.0 4.0 0.00 0.00 0.00 87 1014.4
20260901022046 87 0 0.0 6.0 0.00 0.00 0.00 87 1014.4
20260901021612 87 327 0.0 6.0 0.00 0.00 0.00 87 1014.3
20260901021040 87 313 2.0 6.0 0.00 0.00 0.00 86 1014.3
20260901020537 87 327 1.0 5.0 0.00 0.00 0.00 86 1014.3
20260901020115 87 322 0.0 5.0 0.00 0.00 0.00 86 1014.3
20260901015537 87 308 0.0 6.0 0.00 0.00 0.00 86 1014.3
20260901015039 87 0 1.0 9.0 0.00 0.00 0.00 85 1014.2
20260901014604 87 348 3.0 9.0 0.00 0.00 0.00 85 1014.0
20260901014037 88 5 2.0 6.0 0.00 0.00 0.00 85 1014.1
20260901013540 88 0 1.0 6.0 0.00 0.00 0.00 84 1014.0
20260901013104 88 0 0.0 6.0 0.00 0.00 0.00 84 1013.8
20260901012609 88 331 1.0 9.0 0.00 0.00 0.00 84 1013.6
20260901012041 88 0 2.0 9.0 0.00 0.00 0.00 83 1013.6
20260901011604 88 333 4.0 10.0 0.00 0.00 0.00 83 1013.5
20260901011041 88 325 4.0 10.0 0.00 0.00 0.00 82 1013.5
20260901010540 89 331 3.0 10.0 0.00 0.00 0.00 82 1013.5
20260901010104 89 317 3.0 8.0 0.00 0.00 0.00 81 1013.4
20260901005538 89 311 3.0 6.0 0.00 0.00 0.00 81 1013.3
20260901005043 89 320 1.0 4.0 0.00 0.00 0.00 81 1013.3
20260901004608 90 0 1.0 8.0 0.00 0.00 0.00 81 1013.4
20260901004041 90 61 1.0 8.0 0.00 0.00 0.00 80 1013.2
20260901003544 90 331 1.0 8.0 0.00 0.00 0.00 81 1013.2
20260901003104 91 272 0.0 8.0 0.00 0.00 0.00 81 1013.1
20260901002541 91 5 2.0 8.0 0.00 0.00 0.00 80 1013.2
20260901002040 92 72 1.0 9.0 0.00 0.00 0.00 80 1013.1
20260901001602 92 0 1.0 9.0 0.00 0.00 0.00 79 1013.1
20260901001045 92 323 2.0 11.0 0.00 0.00 0.00 79 1013.0
20260901000541 93 0 3.0 11.0 0.00 0.00 0.00 77 1013.0
20260901000114 93 58 3.0 10.0 0.00 0.00 0.00 74 1013.0
20260831235541 93 84 3.0 10.0 0.00 0.00 0.00 74 1012.9
20260831235042 93 115 4.0 9.0 0.00 0.00 0.00 74 1012.9
20260831234606 93 81 4.0 9.0 0.00 0.00 0.00 74 1012.8
20260831234044 93 82 4.0 9.0 0.00 0.00 0.00 74 1012.8
20260831233540 94 132 3.0 10.0 0.00 0.00 0.00 73 1012.8
20260831233102 94 44 4.0 11.0 0.00 0.00 0.00 73 1012.8
20260831232541 94 101 5.0 11.0 0.00 0.00 0.00 72 1012.7
20260831232041 94 69 5.0 11.0 0.00 0.00 0.00 72 1012.7
20260831231559 94 74 5.0 11.0 0.00 0.00 0.00 71 1012.8
20260831231044 94 90 4.0 10.0 0.00 0.00 0.00 71 1012.8
20260831230543 95 71 4.0 10.0 0.00 0.00 0.00 72 1012.9
20260831230106 95 124 4.0 10.0 0.00 0.00 0.00 72 1012.9
20260831225541 95 113 4.0 10.0 0.00 0.00 0.00 72 1012.9
20260831225041 95 122 4.0 9.0 0.00 0.00 0.00 71 1012.9
20260831224607 95 79 3.0 10.0 0.00 0.00 0.00 71 1013.0
20260831224042 95 109 5.0 11.0 0.00 0.00 0.00 70 1013.0
20260831223541 95 120 6.0 11.0 0.00 0.00 0.00 70 1013.1
20260831223102 95 83 2.0 12.0 0.00 0.00 0.00 70 1013.1
20260831222540 95 48 6.0 12.0 0.00 0.00 0.00 71 1013.1
20260831222040 95 141 5.0 10.0 0.00 0.00 0.00 71 1013.2
20260831221556 96 133 4.0 10.0 0.00 0.00 0.00 70 1013.2
20260831221043 96 62 4.0 11.0 0.00 0.00 0.00 71 1013.3
20260831220541 95 84 5.0 11.0 0.00 0.00 0.00 71 1013.2
20260831220056 96 115 4.0 11.0 0.00 0.00 0.00 70 1013.3
20260831215541 96 109 4.0 11.0 0.00 0.00 0.00 71 1013.4
20260831215044 95 130 5.0 12.0 0.00 0.00 0.00 72 1013.5
20260831214603 95 90 5.0 12.0 0.00 0.00 0.00 72 1013.4
20260831214044 96 101 6.0 13.0 0.00 0.00 0.00 73 1013.5
20260831213541 96 184 7.0 13.0 0.00 0.00 0.00 71 1013.5
20260831213104 96 105 5.0 13.0 0.00 0.00 0.00 71 1013.5
20260831212542 96 148 6.0 13.0 0.00 0.00 0.00 72 1013.7
20260831212041 96 92 4.0 12.0 0.00 0.00 0.00 72 1013.7
20260831211607 96 156 5.0 12.0 0.00 0.00 0.00 72 1013.7
20260831211042 96 123 6.0 12.0 0.00 0.00 0.00 73 1013.6
20260831210541 96 89 4.0 11.0 0.00 0.00 0.00 72 1013.6
20260831210104 96 144 4.0 11.0 0.00 0.00 0.00 73 1013.7
20260831205540 96 56 6.0 12.0 0.00 0.00 0.00 72 1013.8
20260831205041 96 114 6.0 12.0 0.00 0.00 0.00 72 1013.8
20260831204600 96 67 3.0 12.0 0.00 0.00 0.00 72 1013.7
20260831204041 96 85 6.0 12.0 0.00 0.00 0.00 72 1013.8
20260831203540 96 90 4.0 12.0 0.00 0.00 0.00 72 1013.9
20260831203101 96 92 5.0 11.0 0.00 0.00 0.00 72 1013.9
20260831202541 95 106 4.0 11.0 0.00 0.00 0.00 73 1014.0
20260831202039 95 132 6.0 11.0 0.00 0.00 0.00 72 1014.1
20260831201605 95 123 2.0 10.0 0.00 0.00 0.00 73 1014.1
20260831201042 96 102 5.0 10.0 0.00 0.00 0.00 72 1014.1
20260831200542 96 131 3.0 10.0 0.00 0.00 0.00 72 1014.2
20260831200059 95 125 3.0 12.0 0.00 0.00 0.00 73 1014.2
20260831195540 94 100 3.0 12.0 0.00 0.00 0.00 73 1014.3
20260831195040 95 119 3.0 11.0 0.00 0.00 0.00 73 1014.2
20260831194636 95 117 3.0 11.0 0.00 0.00 0.00 73 1014.3
20260831194041 94 140 5.0 11.0 0.00 0.00 0.00 74 1014.4
20260831193542 94 115 5.0 10.0 0.00 0.00 0.00 74 1014.5
20260831193107 94 157 2.0 8.0 0.00 0.00 0.00 75 1014.6
20260831192540 94 112 4.0 8.0 0.00 0.00 0.00 73 1014.7
20260831192042 93 339 1.0 6.0 0.00 0.00 0.00 74 1014.7
20260831191602 93 22 2.0 9.0 0.00 0.00 0.00 74 1014.9
20260831191040 92 0 2.0 10.0 0.00 0.00 0.00 75 1015.1
20260831190540 93 96 6.0 10.0 0.00 0.00 0.00 75 1015.1
20260831190118 93 144 3.0 7.0 0.00 0.00 0.00 74 1015.2
20260831185542 93 171 2.0 7.0 0.00 0.00 0.00 75 1015.4
20260831185037 92 29 1.0 10.0 0.00 0.00 0.00 76 1015.6
20260831184605 92 44 4.0 10.0 0.00 0.00 0.00 75 1015.7
20260831184037 93 148 2.0 6.0 0.00 0.00 0.00 75 1015.8
20260831183537 93 315 1.0 7.0 0.00 0.00 0.00 74 1015.9
20260831183109 92 26 3.0 9.0 0.00 0.00 0.00 75 1015.9
20260831182537 91 159 5.0 9.0 0.00 0.00 0.00 76 1016.0
20260831182040 92 143 5.0 10.0 0.00 0.00 0.00 76 1016.0
20260831181604 92 89 4.0 10.0 0.00 0.00 0.00 76 1016.0
20260831181039 92 140 5.0 10.0 0.00 0.00 0.00 75 1016.2
20260831180542 92 71 1.0 8.0 0.00 0.00 0.00 76 1016.3
20260831180109 92 38 2.0 8.0 0.00 0.00 0.00 76 1016.4
20260831175536 91 124 0.0 4.0 0.00 0.00 0.00 77 1016.3
20260831175039 91 35 2.0 4.0 0.00 0.00 0.00 78 1016.3
20260831174556 90 286 1.0 6.0 0.00 0.00 0.00 78 1016.3
20260831174038 90 0 1.0 6.0 0.00 0.00 0.00 78 1016.3
20260831173537 89 47 2.0 6.0 0.00 0.00 0.00 79 1016.3
20260831173104 89 0 0.0 5.0 0.00 0.00 0.00 79 1016.3
20260831172537 89 0 1.0 5.0 0.00 0.00 0.00 79 1016.3
20260831172039 89 351 1.0 5.0 0.00 0.00 0.00 79 1016.3
20260831171603 89 0 1.0 5.0 0.00 0.00 0.00 79 1016.4
20260831171039 88 149 1.0 6.0 0.00 0.00 0.00 80 1016.5
20260831170540 88 323 2.0 6.0 0.00 0.00 0.00 80 1016.6
20260831170112 88 0 0.0 6.0 0.00 0.00 0.00 81 1016.7
20260831165540 87 0 2.0 6.0 0.00 0.00 0.00 81 1016.7
20260831165039 87 0 0.0 6.0 0.00 0.00 0.00 82 1016.7
20260831164609 87 310 0.0 6.0 0.00 0.00 0.00 82 1016.8
20260831164040 87 192 2.0 6.0 0.00 0.00 0.00 82 1016.9
20260831163539 86 352 2.0 5.0 0.00 0.00 0.00 82 1016.8
20260831163057 86 334 2.0 6.0 0.00 0.00 0.00 82 1016.9
20260831162540 86 95 2.0 6.0 0.00 0.00 0.00 83 1016.9
20260831162039 85 0 1.0 6.0 0.00 0.00 0.00 84 1016.9
20260831161556 85 80 1.0 6.0 0.00 0.00 0.00 84 1016.9
20260831161041 84 0 0.0 7.0 0.00 0.00 0.00 85 1016.9
20260831160540 85 63 2.0 7.0 0.00 0.00 0.00 84 1016.7
20260831160110 85 0 2.0 6.0 0.00 0.00 0.00 84 1016.6
20260831155537 85 11 1.0 9.0 0.00 0.00 0.00 83 1016.6
20260831155042 85 118 1.0 9.0 0.00 0.00 0.00 84 1016.6
20260831154706 84 115 5.0 9.0 0.00 0.00 0.00 84 1016.5
20260831154039 84 94 3.0 9.0 0.00 0.00 0.00 84 1016.3
20260831153541 84 107 2.0 7.0 0.00 0.00 0.00 85 1016.4
20260831153104 84 67 3.0 8.0 0.00 0.00 0.00 85 1016.4
20260831152538 83 0 0.0 8.0 0.00 0.00 0.00 86 1016.4
20260831152040 83 41 3.0 8.0 0.00 0.00 0.00 86 1016.5
20260831151605 82 59 2.0 9.0 0.00 0.00 0.00 87 1016.5
20260831151039 82 114 3.0 10.0 0.00 0.00 0.00 87 1016.4
20260831150539 82 54 5.0 10.0 0.00 0.00 0.00 87 1016.4
20260831150101 82 98 5.0 9.0 0.00 0.00 0.00 87 1016.4
20260831145539 81 108 2.0 9.0 0.00 0.00 0.00 88 1016.4
20260831145038 81 0 3.0 9.0 0.00 0.00 0.00 88 1016.3
20260831144558 81 104 5.0 9.0 0.00 0.00 0.00 88 1016.3
20260831144036 81 71 5.0 9.0 0.00 0.00 0.00 88 1016.3
20260831143540 81 91 5.0 9.0 0.00 0.00 0.00 88 1016.3
20260831143111 80 110 2.0 8.0 0.00 0.00 0.00 89 1016.2
20260831142540 80 124 3.0 8.0 0.00 0.00 0.00 89 1016.0
20260831142039 80 72 2.0 7.0 0.00 0.00 0.00 89 1016.0
20260831141612 80 113 3.0 7.0 0.00 0.00 0.00 89 1016.0
20260831141037 80 101 2.0 7.0 0.00 0.00 0.00 89 1015.8
20260831140541 80 68 2.0 7.0 0.00 0.00 0.00 90 1015.8
20260831140059 79 101 3.0 7.0 0.00 0.00 0.00 90 1015.8